Skip Page Navigation
NASA JPL Caltech
NASA Logo - Jet Propulsion Laboratory + View the NASA Portal
+ Near-Earth Object (NEO) Program
Search JPL
JPL Home Earth Solar System Stars & Galaxies Technology
JPL Solar System Dynamics
BODIES ORBITS EPHEMERIDES TOOLS PHYSICAL DATA DISCOVERY FAQ SITE MAP
JPL Small-Body Database Browser
Search: [ help ]  
96391 (1998 CZ1)
Classification: Main-belt Asteroid          SPK-ID: 2096391
Ephemeris | Orbit Diagram | Orbital Elements | Physical Parameters | Discovery Circumstances | Close-Approach Data ]

[ show orbit diagram ]
Orbital Elements at Epoch 2457000.5 (2014-Dec-09.0) TDB
Reference: JPL 10 (heliocentric ecliptic J2000)
 Element Value Uncertainty (1-sigma)   Units 
e .1118981531860928 9.774e-08  
a 2.606363789934909 2.0454e-08 AU
q 2.314716495310087 2.5302e-07 AU
i 13.4188847929454 8.9991e-06 deg
node 94.82863968916739 3.4655e-05 deg
peri 139.5997976101965 5.0385e-05 deg
M 320.1964846834051 3.3306e-05 deg
tp 2457170.429940524489
(2015-May-27.92994052)
0.00014204 JED
period 1536.918990753342
4.21
1.8092e-05
4.953e-08
d
yr
n .2342348569871865 2.7573e-09 deg/d
Q 2.898011084559731 2.2743e-08 AU
  Orbit Determination Parameters
   # obs. used (total)      601  
   data-arc span      7659 days (20.97 yr)  
   first obs. used      1994-06-06  
   last obs. used      2015-05-26  
   planetary ephem.      DE431  
   SB-pert. ephem.      SB431-BIG16  
   condition code      0  
   fit RMS      .58038  
   data source      ORB  
   producer      Otto Matic  
   solution date      2015-Jun-04 19:15:36  

Additional Information
 Earth MOID = 1.31883 AU 
 T_jup = 3.365 
[ show covariance matrix ]

Ephemeris | Orbit Diagram | Orbital Elements | Physical Parameters | Discovery Circumstances | Close-Approach Data ]

Physical Parameter Table
Parameter Symbol Value Units Sigma Reference Notes
absolute magnitude H 14.2 mag n/a MPO253918  

96391 (1998 CZ1)          Discovered 1998-Feb-06 by BAO Schmidt CCD Asteroid Program at Xinglong
Reference: 20050224/Numbers.arcLast Updated: 2005-02-28

[ show close-approach data ]
Alternate Designations
 1998 CZ1 = 1994 LK7 
Ephemeris | Orbit Diagram | Orbital Elements | Physical Parameters | Discovery Circumstances | Close-Approach Data ]
ABOUT SSD CREDITS/AWARDS PRIVACY/COPYRIGHT GLOSSARY LINKS
FirstGov 2015-Jul-01 06:33 UT
(server date/time)  
NASA Home Page
Site Manager:   Ryan S. Park
Webmaster  Alan B. Chamberlin